GFSSGP_con_mucape_099.txt.gz
CAPE
0 0 0 0 0 0 0 0 0 0 0 0 0 0 0 0 0 0 612 1064 1218 1262 1744 1768 1750 1874 1875 1864 1790 1795 2055 2394 2502 2461 2270 2182 2210 2111 2076 2153 2241 2540 2788 2716 2094 1970 2231 2374 2033
0 0 0 0 0 0 0 0 0 0 0 0 0 0 0 0 0 0 997 1220 1272 1488 1779 1853 1749 1877 1911 1860 1881 1979 2235 2378 2460 2523 2498 2336 2325 2250 2231 2245 2289 2626 2795 2584 2141 2059 2201 2024 1640
0 0 0 0 0 0 0 0 0 0 0 0 0 0 0 0 0 0 1138 1534 1365 1624 1779 1890 1746 1829 1939 1893 1935 2037 2198 2157 2250 2372 2602 2598 2532 2484 2438 2264 2359 2772 2800 2624 2231 2406 2329 1559 1354
0 0 0 0 0 0 0 0 0 0 0 0 0 0 0 0 0 72 988 1443 1586 1675 1787 1733 1617 1809 1930 1940 2013 2076 2010 1916 2030 2212 2505 2689 2736 2651 2465 2268 2626 2907 2851 2714 2580 2521 2030 1279 1129
0 0 0 0 0 0 0 0 0 0 0 0 0 0 0 0 0 452 1366 1389 1624 1742 1869 2031 1847 1869 1946 2028 2066 2007 1848 1829 1941 2122 2284 2527 2656 2618 2344 2285 2474 2806 2599 2511 2524 2181 1585 1218 1139
0 0 0 0 0 0 0 0 0 0 0 0 0 0 0 0 0 330 1354 1358 1385 1754 1921 2107 1879 1922 1937 1993 1990 1902 1750 1754 1899 2063 2154 2372 2432 2382 2251 2259 2352 2580 2381 2134 2026 1640 1447 1251 1239
0 0 0 0 0 0 0 0 0 0 0 0 0 0 0 0 12 923 780 1168 1388 1645 1906 2113 2295 2157 1942 1980 1927 1858 1701 1708 1853 1977 2119 2199 2137 2152 2165 2204 2133 2325 2114 1857 1732 1500 1272 1278 1246
0 0 0 0 0 0 0 0 0 0 0 0 0 0 0 0 45 1038 893 1175 1304 1357 1553 1712 1877 2234 2232 2381 1973 1913 1741 1690 1759 1888 2026 2135 2017 1962 2022 2075 2088 2164 1826 1581 1507 1317 1156 1232 1210
0 0 0 0 0 0 0 0 0 0 0 0 0 0 0 0 0 755 1223 1123 1314 1172 1315 1668 2062 2231 2095 1978 2221 1948 1800 1743 1790 1885 1926 2138 2249 2274 2179 2069 2066 2020 1535 1387 1304 1216 1047 1112 1086
0 0 0 0 0 0 0 0 0 0 0 0 0 0 0 0 0 0 516 1451 1173 1303 1096 1814 2160 2480 2323 2154 1905 2301 2322 2254 2226 2254 2395 2400 2391 2322 2162 1911 1767 1738 1374 1150 1092 998 934 946 1341
0 0 0 0 0 0 0 0 0 0 0 0 0 0 0 0 0 0 0 937 1649 1178 1255 1038 1488 2160 2437 2220 2018 2274 2102 2181 2031 1920 2101 2388 2472 2260 2203 2352 2112 2194 1333 1674 1124 1189 1271 1210 1239
0 0 0 0 0 0 0 0 0 0 0 0 0 0 0 0 0 0 0 0 234 1679 1353 1320 1132 1301 1625 2104 1240 2254 2294 2135 2635 2611 2408 2120 1980 2066 1955 1801 1892 2067 1612 1360 1614 1312 1308 1009 978
0 0 0 0 0 0 0 0 0 0 0 0 0 0 0 0 0 0 0 0 0 103 985 1748 1333 1113 978 1398 1494 1998 1875 1808 1913 2436 2220 1984 2138 2262 1534 1520 1465 1599 1298 1103 1100 1009 1010 892 851
0 0 0 0 0 0 0 0 0 0 0 0 0 0 0 0 0 0 0 0 0 0 92 782 1701 1487 1290 1418 1197 1430 1666 1461 2160 2262 2035 2135 2395 2190 2019 2297 1924 1484 1261 1186 1004 816 623 693 635
0 0 0 0 0 0 0 0 0 0 0 0 0 0 0 0 0 0 0 0 0 0 0 0 697 1947 1626 1512 1596 1434 1315 1211 1310 1969 2230 2131 2341 2179 1939 2155 2042 1758 1229 1675 1153 711 503 343 616
0 0 0 0 0 0 0 0 0 0 0 0 0 0 0 0 0 0 0 0 0 0 0 0 0 984 1970 1884 1788 1721 1491 1247 1154 1722 2088 1797 2030 2056 2062 1993 1827 1162 800 1359 1250 743 516 274 106
0 0 0 0 0 0 0 0 0 0 0 0 0 0 0 0 0 0 0 0 0 0 0 0 0 0 1413 1922 2083 1927 1737 1472 1184 1255 1613 1543 1664 1790 1953 1680 1200 822 599 731 1245 617 337 68 163
0 0 0 0 0 0 0 0 0 0 0 0 0 0 0 0 0 0 0 0 0 0 0 0 0 0 257 1838 1998 2023 1762 1777 1754 1430 1129 1311 1328 1573 1739 1317 908 737 563 405 728 231 77 119 129
0 0 0 0 0 0 0 0 0 0 0 0 0 0 0 0 0 0 0 0 0 0 0 0 0 0 0 1807 1843 1485 1692 1559 1757 1601 1260 1213 1042 1187 1257 912 908 694 497 388 700 235 134 128 88
0 0 0 0 0 0 0 0 0 0 0 0 0 0 0 0 0 0 0 0 0 0 0 0 0 0 0 527 1860 1870 1472 1783 1826 1604 1273 1220 943 952 1086 1043 809 792 612 659 326 410 133 194 71
0 0 0 0 0 0 0 0 0 0 0 0 0 0 0 0 0 0 0 0 0 0 0 0 0 0 0 6 1657 2001 1804 1816 1997 1570 1423 1288 1060 1019 1370 1133 937 871 683 533 408 512 291 217 80
0 0 0 0 0 0 0 0 0 0 0 0 0 0 0 0 0 0 0 0 0 0 0 0 0 0 0 1 1186 1846 1508 1499 1750 1811 1450 1517 1149 939 951 1016 863 959 752 603 697 161 80 322 84
0 0 0 0 0 0 0 0 0 0 0 0 0 0 0 0 0 0 0 0 0 0 0 0 0 0 0 45 872 2113 1716 1990 2033 1890 1369 1373 1274 1035 433 1 353 790 824 738 302 110 259 201 198
0 0 0 0 0 0 0 0 0 0 0 0 0 0 0 0 0 0 0 0 0 0 0 0 21 25 57 357 953 1918 1802 1840 1843 1538 1324 1426 1100 619 98 57 346 849 962 757 393 208 202 186 368
0 0 0 0 0 0 0 0 0 0 0 0 0 0 0 0 0 0 0 0 0 0 0 0 45 71 359 640 1438 1798 1708 1683 1749 1559 1332 1168 665 181 135 331 636 881 854 797 383 148 246 147 292
0 0 0 0 0 0 0 0 0 0 0 0 0 0 0 0 0 0 0 0 1 2 1 8 76 197 624 905 1571 1547 1485 1568 1570 1505 965 807 592 538 361 439 709 830 566 347 510 166 258 171 153
0 0 0 0 0 0 0 0 0 0 2 0 0 0 0 0 0 0 0 0 0 0 5 33 88 194 592 1137 1523 1313 1076 1046 1174 1290 1154 909 557 388 388 477 649 651 598 543 399 279 210 166 254
4 0 0 0 0 0 0 0 0 0 0 0 0 0 0 0 0 0 0 0 0 4 12 41 59 207 509 1046 1306 1043 1060 774 700 919 757 680 463 316 236 442 558 908 704 513 220 99 181 107 100
0 0 0 0 0 0 0 0 0 0 0 0 0 0 0 0 0 0 0 0 0 0 35 49 76 128 504 1141 795 937 686 941 1067 1013 934 375 136 25 168 359 874 579 480 251 181 157 144 117 113
0 0 0 0 0 0 0 0 0 0 0 0 0 0 0 0 0 0 0 0 0 0 76 87 105 114 189 445 354 617 693 482 548 504 364 179 50 51 151 214 226 220 267 301 229 150 206 124 126

GFSSGP_con_mucape_102.txt.gz
CAPE
0 0 0 0 0 0 0 0 0 0 0 0 0 0 0 0 0 0 0 1683 1723 1545 2369 2008 1713 1769 1872 1950 1928 2171 2414 2487 2476 2296 2247 2319 2316 2189 2137 2268 2375 2639 2874 2837 2418 2043 2091 2662 2532
0 0 0 0 0 0 0 0 0 0 0 0 0 0 0 0 0 0 26 1022 1731 1577 2254 2305 1715 1746 1870 1896 1939 2200 2652 2722 2631 2488 2398 2487 2432 2308 2341 2344 2388 2681 3063 2952 2295 2220 2741 2607 2194
0 0 0 0 0 0 0 0 0 0 0 0 0 0 0 0 0 0 0 865 1654 1761 2030 2090 1713 1708 1841 1864 1919 2106 2472 2568 2636 2613 2567 2585 2587 2510 2513 2386 2560 3020 3177 3068 2450 2627 2736 1960 1722
0 0 0 0 0 0 0 0 0 0 0 0 0 0 0 0 0 0 0 1671 1818 1812 1910 1814 1713 1725 1816 1877 1921 2046 2109 2252 2429 2589 2698 2719 2703 2671 2618 2423 2746 3208 3136 3037 2942 2889 2110 1544 1455
0 0 0 0 0 0 0 0 0 0 0 0 0 0 0 0 0 0 68 1613 2219 2075 2074 2307 1701 1737 1819 1938 1969 1976 1875 1997 2250 2503 2635 2700 2786 2746 2496 2393 2745 2900 3052 2975 2801 2581 1829 1400 1361
0 0 0 0 0 0 0 0 0 0 0 0 0 0 0 0 0 0 57 1525 2248 2446 2363 2588 1728 1765 1786 1875 1903 1837 1732 1790 2048 2335 2510 2706 2700 2552 2339 2410 2464 2781 2789 2523 2401 2130 1601 1388 1367
0 0 0 0 0 0 0 0 0 0 0 0 0 0 0 0 0 0 148 1443 2269 2552 2530 2625 2662 2309 1814 1825 1852 1797 1650 1692 1810 2090 2385 2590 2542 2363 2261 2364 2426 2421 2380 2209 2187 1789 1440 1391 1360
0 0 0 0 0 0 0 0 0 0 0 0 0 0 0 0 0 0 8 1169 2152 2439 2599 2651 2652 2545 2709 2526 1808 1794 1654 1635 1688 1854 2066 2233 2327 2290 2178 2235 2283 2315 2179 2051 1944 1683 1434 1328 1304
0 0 0 0 0 0 0 0 0 0 0 0 0 0 0 0 0 0 0 185 1964 2216 2389 2301 2219 2343 2314 2704 2463 1868 1693 1583 1640 1785 1881 2157 2429 2695 2607 2332 2178 2270 2036 1960 1737 1578 1375 1249 1263
0 0 0 0 0 0 0 0 0 0 0 0 0 0 0 0 0 0 0 0 1668 2172 2226 2349 2325 2165 2234 2520 2336 2598 2724 2453 2366 2286 2395 2431 2404 2574 2174 2114 2256 2165 1961 1751 1518 1415 1206 1202 1784
0 0 0 0 0 0 0 0 0 0 0 0 0 0 0 0 0 0 0 0 1 1293 2040 2106 2412 2527 2470 2052 2121 2166 2546 2635 2763 2744 2753 2646 2634 2728 2548 2598 2564 2596 1882 2090 1498 1678 1690 1445 1542
0 0 0 0 0 0 0 0 0 0 0 0 0 0 0 0 0 0 0 0 0 97 671 1731 2095 2376 2416 2316 2040 1998 2159 2350 2314 2752 2678 2956 2791 2685 2643 2398 2421 2519 2314 2086 2030 1740 1690 1694 1491
0 0 0 0 0 0 0 0 0 0 0 0 0 0 0 0 0 0 0 0 0 0 390 421 1599 2170 2255 2315 2039 2104 2026 2237 2303 2258 2339 2683 2482 2618 2488 2243 2399 2466 2158 2270 2050 1936 1781 1786 1524
0 0 0 0 0 0 0 0 0 0 0 0 0 0 0 0 0 0 0 0 0 0 0 143 218 1373 2010 2090 2071 1999 1931 2061 2018 1859 2056 2190 2348 2553 2249 2322 2238 2175 2158 2218 2058 1920 1879 1766 1498
0 0 0 0 0 0 0 0 0 0 0 0 0 0 0 0 0 0 0 0 0 0 0 0 80 234 1324 1949 2020 1978 1800 1892 1948 1789 1996 2044 2485 2377 2268 1862 1834 2090 2053 2091 1925 1851 1722 1451 1210
0 0 0 0 0 0 0 0 0 0 0 0 0 0 0 0 0 0 0 0 0 0 0 0 0 0 89 1017 1595 2086 2093 2042 1908 1862 1829 1944 2226 2206 2215 1766 1827 1627 1706 1418 1242 1225 1089 924 1198
0 0 0 0 0 0 0 0 0 0 0 0 0 0 0 0 0 0 0 0 0 0 0 0 0 0 0 1 959 1584 2242 2401 2204 1956 1886 2115 2214 2178 2157 1836 1647 1569 1713 1613 1449 1267 1223 978 1110
0 0 0 0 0 0 0 0 0 0 0 0 0 0 0 0 0 0 0 0 0 0 0 0 0 0 0 0 60 1119 1461 2335 2335 2169 1950 2040 2386 2164 2036 1879 1702 1429 2102 1425 1156 1158 906 1146 573
12 0 0 0 0 0 0 0 0 0 0 0 0 0 0 0 0 0 0 0 0 0 0 0 0 0 0 0 0 567 1306 1934 1952 2259 2235 2087 2109 2123 1880 1729 1546 1748 1751 1143 1018 730 809 664 579
33 2 0 0 0 0 0 0 0 0 0 0 0 0 0 0 0 0 0 0 0 0 0 0 0 0 0 0 0 18 1027 1303 1596 1988 2631 2154 2087 2169 1831 1490 1294 1538 1228 1070 1113 758 436 643 468
48 10 6 1 0 0 0 0 0 0 0 0 0 0 0 0 0 0 0 0 0 0 0 0 0 0 0 0 1 0 726 1507 1762 1929 2402 2342 2214 1961 1702 1311 1273 1332 1464 1182 1141 775 492 265 241
38 0 0 2 0 0 0 0 0 0 0 0 0 0 0 0 0 0 0 0 0 0 0 0 0 0 0 0 0 6 159 1481 1703 1817 2146 2144 1834 1620 1438 1070 1078 1067 1218 955 1081 810 701 498 246
32 0 0 0 0 0 0 0 0 0 0 0 0 1 0 0 0 0 0 0 0 0 0 0 0 0 0 0 0 14 156 1833 1742 1921 1988 1969 1672 1504 1348 929 855 267 792 866 1040 1074 1132 908 382
5 0 0 0 0 2 0 0 0 0 0 3 3 1 0 0 0 0 0 0 0 0 0 0 0 0 0 0 11 0 481 1061 1979 1912 1850 1854 1775 1405 1314 1176 1180 809 661 705 589 800 1036 862 619
0 0 3 12 25 9 0 0 0 0 0 1 13 0 0 0 0 0 0 0 0 0 0 0 0 0 3 2 79 199 524 880 2249 1940 2074 1651 1972 1433 1370 1312 912 661 633 711 575 649 1124 861 607
0 0 0 0 0 0 0 0 0 36 17 3 0 0 0 0 0 0 0 0 0 0 0 0 0 0 57 170 292 498 1015 1388 2413 1999 1944 1644 1631 1789 1739 973 964 409 357 580 656 655 1220 972 926
0 0 33 0 0 0 0 0 89 11 8 4 0 0 0 0 0 0 0 0 0 0 0 0 0 0 25 249 697 735 2023 2095 2080 1829 1720 1594 2247 1904 1107 589 413 270 302 625 527 1027 1049 537 290
83 48 0 0 0 0 0 0 0 0 5 0 0 0 0 0 0 0 0 0 0 0 0 0 1 2 20 116 725 1107 1455 1586 1586 1678 1784 1193 1701 1210 965 642 636 463 394 602 623 766 436 220 312
2 26 84 52 1 0 0 0 25 0 0 0 0 0 0 0 0 0 0 0 0 0 0 0 0 35 49 136 673 1097 1034 1186 1253 1328 1081 1228 969 981 705 506 325 303 404 350 432 409 449 430 174
0 0 0 0 0 0 0 0 13 0 0 0 0 0 0 0 0 0 0 0 0 0 0 0 0 61 57 91 97 220 492 599 763 775 608 798 802 643 632 503 175 151 295 388 390 498 305 367 230

GFSSGP_con_mucape_105.txt.gz
CAPE
0 0 0 0 0 0 0 0 0 0 0 0 0 0 0 0 0 0 0 514 1707 1797 2783 1895 1633 1863 2065 2146 2274 2342 2368 2286 2292 2314 2297 2395 2424 2314 2344 2493 2538 2712 2881 2807 2489 2465 2335 2471 2639
0 0 0 0 0 0 0 0 0 0 0 0 0 0 0 0 0 0 0 0 683 1854 2247 2224 1642 1790 2022 2051 2251 2428 2557 2497 2481 2404 2490 2544 2519 2422 2429 2515 2529 2869 2968 3027 2762 2483 2576 2891 2521
0 0 0 0 0 0 0 0 0 0 0 0 0 0 0 0 0 0 0 319 1113 1470 2079 2575 1658 1650 1925 1988 2180 2475 2633 2629 2541 2483 2602 2685 2651 2582 2597 2525 2585 2851 3151 3066 2611 2456 2914 2475 2142
0 0 0 0 0 0 0 0 0 0 0 0 0 0 0 0 0 0 0 337 1791 1803 2088 2195 1875 1594 1783 1906 2087 2375 2543 2535 2515 2504 2696 2805 2753 2709 2654 2496 2693 3029 3450 3259 2911 3011 2592 1971 1748
0 0 0 0 0 0 0 0 0 0 0 0 0 0 0 0 0 0 0 364 1987 2399 2143 2515 1784 1638 1733 1933 2033 2121 2272 2409 2498 2530 2598 2733 2754 2715 2577 2432 2770 3101 3235 3171 2739 2700 2005 1595 1576
0 0 0 0 0 0 0 0 0 0 0 0 0 0 0 0 0 0 0 432 2224 2860 2446 2951 1957 1675 1689 1802 1808 1858 1985 2225 2446 2553 2572 2732 2690 2599 2483 2437 2758 2710 2802 2568 2689 2446 1812 1533 1487
0 0 0 0 0 0 0 0 0 0 0 0 0 0 0 0 0 0 0 127 1882 2799 2990 2865 2979 2082 1647 1682 1655 1641 1673 1906 2180 2458 2573 2689 2647 2516 2357 2444 2580 2715 2596 2440 2428 2205 1821 1486 1390
0 0 0 0 0 0 0 0 0 0 0 0 0 0 0 0 0 0 0 0 1257 2523 2913 3113 3053 2692 2577 2334 1661 1599 1522 1579 1799 2109 2401 2591 2612 2443 2234 2297 2427 2539 2441 2356 2327 2167 1573 1380 1262
0 0 0 0 0 0 0 0 0 0 0 0 0 0 0 0 0 0 0 0 650 2293 2618 3194 2980 2966 2904 2804 2240 1688 1528 1485 1558 1742 1977 2408 2819 2913 2733 2377 2250 2331 2323 2190 2070 1910 1655 1305 1237
0 0 0 0 0 0 0 0 0 0 0 0 0 0 0 0 0 0 0 0 1 1811 2395 2726 2937 2711 2859 2725 2960 2505 2278 2056 2009 1896 2134 2340 2311 2593 2433 2385 2196 2199 2198 2061 1928 1798 1664 1513 1733
0 0 0 0 0 0 0 0 0 0 0 0 0 0 0 0 0 0 0 0 0 22 2272 2428 2851 2740 2591 2594 2670 2790 2918 2674 2684 2613 2662 2477 2573 2805 2420 2495 2527 2763 2095 2413 2065 2089 2049 1782 1552
0 0 0 0 0 0 0 0 0 0 0 0 0 0 0 0 0 0 0 0 0 0 0 1843 2288 2766 3085 2979 2724 2813 2831 2886 2739 2703 3310 3245 2935 2971 2820 2166 2637 2856 2557 2415 2523 2345 2170 1968 1902
0 0 0 0 0 0 0 0 0 0 0 0 0 0 0 0 0 0 0 0 0 0 0 0 632 1871 2580 2797 2787 2718 2661 2629 2695 2732 2928 2669 2540 2927 2407 2379 2201 2545 2062 2613 2401 2123 2147 2117 1856
0 0 0 0 0 0 0 0 0 0 0 0 0 0 0 0 0 0 0 0 0 0 0 0 15 354 1237 2128 2623 2575 2556 2476 2505 2437 2646 2707 2807 2871 2347 2351 2205 1965 2256 2840 2380 2332 2205 2215 2079
0 0 0 0 0 0 0 0 0 0 0 0 0 0 0 0 0 0 0 0 0 0 0 0 0 1 200 966 1790 2281 2304 2214 1987 2106 2523 2436 2591 3029 3008 2437 2531 2052 2223 2718 2600 2657 2404 2137 1803
0 0 0 0 0 0 0 0 0 0 0 0 0 0 0 0 0 0 0 0 0 0 0 0 0 0 0 15 207 1415 1590 2374 2107 2102 2435 2347 2410 2955 3130 2459 2259 2285 2189 2436 2466 2397 2392 2035 1965
1 0 0 0 0 0 0 0 0 0 0 0 0 0 0 0 0 0 0 0 0 0 0 0 0 0 0 0 0 213 1729 2096 2348 2402 2531 2644 2464 2432 2934 2619 2237 2411 2140 2266 2068 2126 2075 2015 1752
2 11 1 0 0 0 0 0 0 0 0 0 0 0 0 0 0 1 0 0 0 0 0 0 0 0 0 0 0 0 113 1779 2181 2167 2759 2924 2867 2838 2932 2324 2359 2242 1806 2132 1653 1517 1611 1557 1623
0 0 9 1 2 0 0 0 0 0 0 0 0 0 0 0 0 0 0 0 0 0 0 0 0 0 0 0 0 0 0 507 1539 1905 2363 2997 2824 2983 2687 2383 2443 2197 1651 2033 1542 1632 1760 1283 1337
0 0 4 34 1 0 0 0 0 0 0 0 0 0 0 2 2 0 0 0 0 0 0 0 0 0 0 0 0 0 3 18 663 1683 2160 2644 2607 2678 2183 2308 2283 2157 1791 2059 1542 1828 1270 1217 975
33 37 0 1 11 3 0 0 4 0 0 0 0 2 8 9 0 0 0 0 0 0 0 0 0 0 0 0 1 0 0 17 218 1840 1971 2256 2785 2723 2176 2345 2381 2012 1849 1734 1505 1415 1046 932 810
0 0 0 93 30 0 0 3 20 0 0 0 1 2 26 14 0 0 0 0 0 0 0 0 0 0 0 0 0 0 6 0 14 1043 1675 2158 2448 2248 2326 2493 2120 1780 1810 1652 1509 1380 1224 1240 691
0 0 0 0 4 31 1 3 1 0 0 0 16 46 51 2 0 0 0 0 0 0 0 0 0 0 0 0 0 0 0 12 125 535 1823 2330 2565 2300 2347 2437 1943 1610 1694 1491 1311 1237 1359 1450 985
0 0 0 0 0 10 3 10 15 0 1 25 51 76 18 0 0 0 0 0 0 0 0 0 0 0 0 0 0 0 0 0 34 617 1616 2261 2636 2138 2064 1929 1732 1588 1802 1397 1280 1427 1672 1675 1362
0 0 0 0 0 0 0 9 0 0 19 48 88 54 10 0 0 0 0 0 0 0 0 0 0 0 0 0 3 0 0 0 0 253 1206 2242 2406 1923 1646 1641 1692 1633 1459 722 244 573 1215 1555 1399
1 0 0 0 0 0 0 0 39 89 144 56 23 1 4 0 0 0 0 0 0 0 0 0 0 0 0 0 0 7 8 1 0 176 1176 1856 2225 2021 1443 1597 1856 1377 1273 912 1103 1442 1557 1340 1147
0 0 1 0 0 0 0 31 112 54 47 67 43 10 1 0 0 0 0 0 0 0 0 0 0 0 0 0 2 192 261 368 303 1174 1749 2109 2270 1928 1506 1493 1377 1514 1512 1086 1094 815 981 1220 1430
9 33 0 0 0 0 0 0 83 100 80 46 0 0 0 0 0 0 0 0 0 0 0 0 0 0 0 2 3 456 522 737 1039 1487 1833 1959 2141 2040 1868 1648 1275 1148 812 970 875 435 762 993 1477
4 61 36 21 2 0 0 35 59 32 6 0 0 0 0 0 0 0 0 0 0 0 0 0 0 0 0 1 9 352 553 515 555 1130 1259 1676 1922 1723 1481 1340 1168 792 706 276 256 436 269 661 930
0 1 0 0 0 2 0 0 12 29 13 1 0 0 0 0 0 0 0 0 0 0 0 0 0 0 0 0 5 28 110 378 526 546 750 1316 1504 1409 1167 904 1023 858 626 600 130 64 205 431 606

GFSSGP_con_mucape_108.txt.gz
CAPE
0 0 0 0 0 0 0 0 0 0 0 0 0 0 0 0 0 0 0 172 861 2651 1986 1682 1622 1900 2128 2327 2370 2293 2127 2287 2308 2297 2335 2379 2401 2390 2445 2497 2517 2704 2918 2849 2423 2404 2369 2541 2439
0 0 0 0 0 0 0 0 0 0 0 0 0 0 0 0 0 0 0 119 871 2066 2671 1904 1592 1807 2021 2140 2298 2392 2468 2438 2434 2424 2477 2510 2456 2417 2489 2532 2498 2786 3012 2979 2448 2433 2717 2698 2518
0 0 0 0 0 0 0 0 0 0 0 0 0 0 0 0 0 0 0 150 1239 1071 2999 2350 1570 1718 1934 2016 2230 2349 2501 2414 2434 2438 2623 2657 2558 2508 2557 2514 2574 2848 3018 3016 3043 2758 2767 2629 2266
0 0 0 0 0 0 0 0 0 0 0 0 0 0 0 0 0 0 0 71 1497 2092 2186 2601 1905 1636 1877 1966 2208 2344 2402 2351 2300 2370 2633 2738 2662 2602 2577 2442 2662 2980 3233 3122 3085 2802 2716 2271 2021
0 0 0 0 0 0 0 0 0 0 0 0 0 0 0 0 0 0 0 312 2045 2952 2609 2421 2122 1676 1806 1998 2167 2336 2385 2349 2244 2322 2511 2667 2692 2637 2519 2354 2582 2862 3191 3097 2938 2836 2376 2092 1615
0 0 0 0 0 0 0 0 0 0 0 0 0 0 0 0 0 0 0 242 2290 2946 3257 2168 1985 1757 1677 1805 1891 2111 2270 2281 2253 2313 2440 2634 2595 2512 2426 2297 2456 2679 2911 2683 2480 2473 1981 1565 1518
0 0 0 0 0 0 0 0 0 0 0 0 0 0 0 0 0 0 0 0 2081 2940 3702 3089 2394 1892 1570 1600 1659 1826 2042 2261 2330 2355 2407 2542 2452 2385 2307 2232 2427 2641 2619 2456 2346 2305 1979 1457 1390
0 0 0 0 0 0 0 0 0 0 0 0 0 0 0 0 0 0 0 0 301 3223 2997 3667 3164 2405 2081 1774 1494 1559 1701 1924 2217 2368 2411 2427 2368 2305 2246 2092 2271 2469 2486 2334 2332 2253 1988 1599 1280
0 0 0 0 0 0 0 0 0 0 0 0 0 0 0 0 0 0 0 0 49 2730 2989 2973 3110 2686 2640 2361 1781 1403 1432 1505 1752 2045 2293 2440 2557 2371 2283 2149 2039 2307 2360 2258 2105 2087 1923 1555 1274
0 0 0 0 0 0 0 0 0 0 0 0 0 0 0 0 0 0 0 0 0 310 3246 2980 2707 2675 2750 2681 2347 1902 1777 1659 1705 1813 1997 2418 2539 2732 2535 2255 2010 2091 2197 2128 2014 1907 1839 1585 1428
0 0 0 0 0 0 0 0 0 0 0 0 0 0 0 0 0 0 0 0 0 0 2498 2999 2841 2434 2670 2357 2717 2359 2102 1896 1932 1948 2095 2147 2213 2448 2244 2321 2030 2156 2013 2056 1903 1731 1627 1696 1748
0 0 0 0 0 0 0 0 0 0 0 0 0 0 0 0 0 0 0 0 0 0 0 2847 2836 2764 2481 2389 2422 2913 2901 2376 2319 2219 2401 2449 2243 2322 2528 2145 2348 2371 2276 2136 1931 1870 1920 1837 1743
0 0 0 0 0 0 0 0 0 0 0 0 0 0 0 0 0 0 0 0 0 0 0 0 600 2079 2741 2200 2402 2501 2449 2603 2600 2740 2645 2427 2475 2490 2418 2254 2175 2348 2265 2182 1978 1948 1951 1855 1677
0 0 0 0 0 0 0 0 0 0 0 0 0 0 0 0 0 0 0 0 0 0 0 0 0 355 1224 2336 2216 2283 2403 2338 2709 2569 2587 2811 2792 2272 2269 2287 1800 2283 2010 2009 2000 1969 1886 1850 1658
0 0 0 0 0 0 0 0 0 0 0 0 0 0 0 0 0 0 0 0 0 0 0 0 0 0 239 906 928 1979 2134 2221 2185 2379 2550 2331 2457 2645 2525 2367 2076 1784 2058 1633 2022 2049 2027 1838 1769
0 0 0 0 0 0 0 0 0 0 0 0 0 0 0 0 0 0 0 0 0 0 0 0 0 0 0 0 568 941 1307 2158 2202 2019 2258 2460 2264 2144 2329 2338 1936 2187 1923 2032 2206 2013 2023 1904 1811
0 0 0 0 0 0 0 0 0 0 0 0 0 0 0 0 0 0 0 0 0 0 0 0 0 0 0 0 0 0 639 841 1830 2097 1956 2309 2092 1966 2205 2279 2140 2001 1827 1879 2094 1948 1911 1928 1660
0 0 1 0 0 17 7 10 0 0 0 0 0 0 0 0 0 0 0 0 0 0 0 0 0 0 0 0 0 0 0 3 410 1346 2136 2103 2169 2060 2128 2254 2163 2079 1899 1824 2177 1923 1909 1792 1706
22 0 0 18 2 16 12 1 0 0 0 0 0 0 0 0 6 1 0 0 0 0 0 0 0 0 0 0 0 0 0 0 0 325 1221 2012 2115 2123 2007 2105 2071 1914 1850 1772 2003 1723 1627 1426 1311
34 40 6 36 0 15 51 25 18 0 0 0 0 0 0 4 7 0 1 0 0 0 0 0 0 0 0 0 0 0 0 0 0 0 207 1166 1593 1781 2036 2113 2032 1792 1555 1507 1778 1402 1276 1179 1126
0 37 3 40 2 3 0 19 42 7 0 0 1 0 1 38 23 2 0 0 0 0 0 0 0 0 0 0 0 0 0 0 0 0 0 451 1369 1712 1845 2089 2033 1659 1103 512 1514 1351 1156 1055 1029
33 20 42 10 0 1 2 2 0 7 1 0 0 16 68 39 3 0 0 0 0 0 0 0 0 0 0 0 0 0 0 0 0 0 0 4 1453 1478 1822 1908 1847 1507 1129 1127 855 1267 1238 855 833
3 3 4 4 0 2 0 6 0 0 13 0 9 88 102 17 0 0 0 0 0 0 0 0 0 0 0 0 0 0 0 0 0 0 0 0 44 1349 1654 1700 1740 1778 1295 856 1265 1149 1058 880 638
0 0 0 0 0 0 0 0 0 0 0 0 51 94 21 0 3 0 0 0 0 0 0 0 0 0 0 0 0 0 0 0 0 0 0 0 4 508 1282 1584 1926 1741 1489 1337 1130 411 914 1037 883
0 0 0 0 0 0 0 0 0 0 0 25 117 34 7 20 0 0 0 0 0 0 0 0 0 0 0 0 0 0 4 0 0 0 0 0 0 217 598 1380 1900 1835 1617 1263 1084 933 398 795 971
0 0 0 0 0 0 0 0 0 61 81 43 3 0 12 11 0 0 0 0 0 0 0 0 0 0 0 0 0 0 4 5 1 3 0 0 0 121 725 1030 1567 1536 1520 1514 1240 998 814 747 864
2 0 0 0 0 0 0 0 0 40 20 5 15 21 0 1 0 0 0 0 0 0 0 0 0 0 0 0 0 0 8 3 34 99 158 14 0 6 1140 1486 1431 1341 1375 1392 1116 896 757 298 535
4 13 49 0 0 0 0 0 64 31 0 0 5 0 0 0 0 0 0 0 0 0 0 0 0 0 0 0 0 0 9 3 174 309 541 604 171 709 1220 1358 1333 1263 1284 1252 1195 847 777 1068 1081
6 0 37 15 0 0 0 57 0 23 11 0 0 0 0 0 0 0 0 0 0 0 0 0 0 0 0 0 0 0 0 0 158 279 558 556 498 831 1191 1350 1310 1159 1210 1123 1140 946 852 586 716
0 8 13 139 38 0 0 0 0 1 0 0 0 0 0 0 0 0 0 0 0 0 0 0 0 0 0 0 0 0 0 0 2 13 93 132 299 490 853 1125 1097 1102 1047 975 801 930 751 500 407